THOR ABLESTAR DEB, 260

Orbit data source: Space-Track

THOR ABLESTAR DEB, 260 is space debris in LEO originally from a launch on Thu, 29 Jun 1961 UTC launched from the Air Force Eastern Test Range (AFETR). Debris objects in space refer to the collection of defunct objects orbiting the Earth. Examples of debris include non-operational satellites, rocket bodies, and fragments generated from explosions, collisions, or faulty payload assembly.

Loading next visibility...
Identifier
260, 1961-015CG
Orbit
LEO
Country
Flag of USUS
Related business
Manufacturer
Unknown
Mission
Spacecraft
Bus & Motor
Unknown
Mass
Unknown
Launch date (UTC)
1961-06-29 (64 years ago)
Launch vehicle
Unknown
Launch site
Air Force Eastern Test Range (AFETR)
Object type
Payload
Rocket body
Debris
Shape & HBR
Unknown shape, 0.1 m
Radar Cross Section
Small (<0.1 m²)

Expand to show TLE details & history
Last TLE update: 14 hours ago

TLE from 14 hours ago
0 THOR ABLESTAR DEB
1 00260U 61015CG  25299.62534925  .00002864  00000-0  86468-3 0  9999
2 00260  66.7666 104.1280 0049695 289.7927  69.7824 14.43141326322620
Epoch: 2025-10-26T15:00Z
TLE epoch observation values (Epoch: 2025-10-26T15:00:30.175Z)
Latitude
Longitude
-156.23659°
Altitude
738.179 km
Speed
7.493 km/s
True Right ascension
06h 56m 30s
True Declination
0° 00' 00"
Sunlit
Object was in daylight at epoch
Visualization orbit readout
Latitude
Unknown
Longitude
Unknown
Altitude
Unknown
Speed
Unknown
Apparent Right ascension
Unknown
Apparent Declination
Unknown
Sunlit
N/A
Visualization observer readout
Local Sidereal Time
00:53:00
Azimuth
Unknown
Elevation
Unknown
Doppler factor
Unknown
Orbital elements
Apogee altitude
781.901 km
Perigee altitude
711.09 km
Semi-major axis
7,124.632 km
Eccentricity
0.00497
Inclination
66.7666°
RAAN
104.128°
Arg. of periapsis
289.7927°
True anomaly
70.31792°
Mean anomaly
69.7824°
Eccentric anomaly
70.05004°
Mean motion
3.6091 °/min
Orbital period
99.75 mins
BSTAR
0.00086468
Loading maneuver chart data...
Computing Atmospheric mass density...

Documentation

Showing up to 5 results
|